ARIANE 42P DEB, 44511

Orbit data source: Space-Track

ARIANE 42P DEB, 44511 is space debris in LEO originally from a launch on Mon, 10 Aug 1992 UTC launched from the French Guiana (FRGUI). Debris objects in space refer to the collection of defunct objects orbiting the Earth. Examples of debris include non-operational satellites, rocket bodies, and fragments generated from explosions, collisions, or faulty payload assembly.

Loading next visibility...
Identifier
44511, 1992-052J
Orbit
LEO
Last TLE update
14 hours ago
Origin
Manufacturer
ArianeGroup
Mission
Spacecraft
Bus & Motor
Unknown
Mass
Unknown
Launch date (UTC)
1992-08-10 (33 years ago)
Launch vehicle
Unknown
Launch site
French Guiana (FRGUI)
Object type
Payload
Rocket body
Debris
Shape & HBR
Unknown
Radar Cross Section
Small (<0.1 m²)

Expand to show TLE details & history

TLE from 14 hours ago
0 ARIANE 42P DEB
1 44511U 92052J   25132.92401840  .00001848  00000-0  78869-2 0  9995
2 44511  66.0641  35.1732 0042678 112.0205 248.5354 12.84196330268801
Epoch: 2025-05-12T22:10Z
Definitive object data (Epoch: 2025-05-12T22:10:35.189Z)
Latitude
-0.00003°
Longitude
-168.40357°
Altitude
1,338.711 km
Speed
7.183 km/s
True Right ascension
02h 20m 41s
True Declination
0° 00' 00"
Sunlit
Object was in daylight at TLE epoch
Visualization TLE readout
Latitude
15.91536°
Longitude
3.15073°
Altitude
1,305.024 km
Speed
7.216 km/s
Apparent Right ascension
11h 47m 02s
Apparent Declination
-11° 35' 59"
Sunlit
Object is in full shadow
Visualization observer readout
Local Sidereal Time
20:31:27
Azimuth
289.337° WNW
Elevation
-38.533°
Doppler factor
1
Orbital elements
Apogee altitude
1,356.07 km
Perigee altitude
1,290.334 km
Semi-major axis
7,701.339 km
Eccentricity
0.0042678
Inclination
66.0641°
RAAN
35.1732°
Arg. of periapsis
112.0205°
True anomaly
248.08116°
Mean anomaly
248.5354°
Eccentric anomaly
248.30819°
Mean motion
3.2114 °/min
BSTAR
0.0078869
Orbital period
112.1 mins
Loading maneuver chart data...
Loading SW <> Apogee altitude chart data...
Loading historical data...
Loading historical data...
Loading historical data...
Loading historical data...
Loading historical data...
Loading historical data...
Loading historical data...

ARIANE 42P DEB Visibility forecast

Observer location: undefined°, undefined°

Span
Click to sort rows by Start time (UTC) header in descending order
Start Az.
Max El. time (UTC)
Max El. Az.
Max El.
End time (UTC)
End Az.
5 mins2025-05-13 17:00:55.891Z117.22° SE2025-05-13 17:02:55.891Z102.031° ESE12.397°2025-05-13 17:05:55.891Z79.077° E
14 mins2025-05-13 18:50:55.891Z198.299° SSW2025-05-13 18:57:55.891Z93.29° ESE43.764°2025-05-13 19:04:55.891Z33.869° NE
11 mins2025-05-13 20:48:55.891Z269.306° W2025-05-13 20:53:55.891Z317.704° NNW25.473°2025-05-13 20:59:55.891Z11.683° NNE
12 mins2025-05-14 02:45:55.891Z348.631° N2025-05-14 02:51:55.891Z49.265° ENE29.046°2025-05-14 02:57:55.891Z105.329° ESE
13 mins2025-05-14 04:41:55.891Z319.073° NNW2025-05-14 04:47:55.891Z238.687° WSW40.728°2025-05-14 04:54:55.891Z170.205° S
|